NSIGHT-1

Last updated on Sun Feb 24 2019 00:02:08 GMT+0000 (Coordinated Universal Time)

1 42726U 98067MF 19054.49697216 .00015793 00000-0 15146-3 0 9999 2 42726 51.6375 175.9513 0004734 91.7865 268.3674 15.66818529 99730
UTC large
Height (km)
Speed (km/s)
/
Latitude / Longitude
Inclination (degrees)
Orbital Period (minutes)
Azimuth
Elevation
Range (km)
Doppler Factor

Next 0 passes for location: London (51.5072 / 0.1276)

Sorry there are no passes over London.